Regional Weather Roundup
Issued by NWS

Home | Current Version | Previous Version | Text Only | Print | Product List | Glossary Off
Versions: 1 2 3 4 5 6 7 8 9 10 11 12 13 14 15 16 17 18 19 20 21 22 23 24 25 26 27 28 29 30 31 32 33 34 35 36 37 38 39 40 41 42 43 44 45 46 47 48 49 50

000
ASUS43 KDMX 021708
RWRIA

WEATHER ROUNDUP FOR IOWA
NATIONAL WEATHER SERVICE DES MOINES IA
1200 PM CDT MON MAY 02 2016

NOTE: "FAIR" INDICATES FEW OR NO CLOUDS BELOW 12,000 FEET WITH NO
SIGNIFICANT WEATHER AND/OR OBSTRUCTIONS TO VISIBILITY.

* - THESE STATIONS ARE NOT NWS STATIONS...THUS NOT UNDER NWS
QUALITY CONTROL.  THEY ALSO DO NOT REPORT WEATHER SUCH
AS PRECIPITATION OR FOG.

IAZ001>003-012>014-020>022-031>034-043>046-021800-
   NORTHWEST IOWA

CITY           SKY/WX    TMP DP  RH WIND       PRES   REMARKS
CARROLL *      MOSUNNY   59  45  58 N7        30.11F
CHEROKEE *     SUNNY     61  39  44 W8        30.12F
DENISON *      SUNNY     59  41  51 N7        30.10S
LE MARS *      SUNNY     59  36  41 NW7       30.13F
ORANGE CITY *  MOSUNNY   57  37  47 CALM      30.12S
SHELDON *      SUNNY     59  37  44 VRB6      30.10F
SIOUX CITY     MOSUNNY   62  39  42 N6        30.13F
SPENCER        MOSUNNY   58  31  35 W5        30.12S
STORM LAKE *   SUNNY     57  36  44 VRB3      30.12S
$$

IAZ055>058-069>071-079>083-090>094-021800-
   SOUTHWEST IOWA

CITY           SKY/WX    TMP DP  RH WIND       PRES   REMARKS
ATLANTIC *     MOSUNNY   59  43  55 NE7       30.12S
AUDUBON *        N/A     59  45  58 NE3       30.13S
CLARINDA *       N/A    N/A N/A N/A MISG        N/A
COUNCIL BLFS * SUNNY     59  45  58 VRB3G12   30.13S
CRESTON *      SUNNY     57  45  62 NE8       30.12S
HARLAN  *      SUNNY     59  45  58 VRB6G14   30.15F
LAMONI         CLOUDY    55  45  68 NE10      30.11S
SHENANDOAH *   MOSUNNY   59  45  58 N5G14     30.13S
$$

IAZ047>049-059>061-072>074-084-021800-
   CENTRAL IOWA

CITY           SKY/WX    TMP DP  RH WIND       PRES   REMARKS
AMES           CLOUDY    59  43  55 N6        30.11F
ANKENY *       PTSUNNY   59  45  58 VRB7      30.11S
BOONE *        CLOUDY    55  43  62 VRB3      30.11S
CHARITON *     PTSUNNY   57  45  62 N7G17     30.10F
DES MOINES     PTSUNNY   61  42  49 VRB3      30.11S
GRINNELL*      PTSUNNY   55  46  71 NE10      30.11S
KNOXVILLE *    MOSUNNY   57  45  62 NE6G13    30.09F
MARSHALLTOWN   MOSUNNY   58  44  60 MISG      30.10F
NEWTON *       SUNNY     57  45  62 N12       30.10S
$$

IAZ004>006-015-016-023>025-035-036-021800-
   NORTH CENTRAL IOWA

CITY           SKY/WX    TMP DP  RH WIND       PRES   REMARKS
ALGONA *       MOSUNNY   61  37  41 CALM      30.11F
CLARION *      PTSUNNY   57  45  62 CALM      30.11F
ESTHERVILLE    PTSUNNY   59  39  47 VRB3      30.10F
FORT DODGE *   PTSUNNY   57  46  67 SE3       30.12S
MASON CITY     CLOUDY    58  43  57 S6        30.12F
FOREST CITY *  PTSUNNY   59  39  47 CALM      30.11F
WEBSTER CITY * CLOUDY    55  45  67 CALM      30.10F
IOWA FALLS *   CLOUDY    57  43  58 N6        30.12S
$$

IAZ007>011-017>019-026>030-037>042-050>054-066-021800-
   NORTHEAST IOWA

CITY           SKY/WX    TMP DP  RH WIND       PRES   REMARKS
CEDAR RAPIDS   CLOUDY    55  43  63 E7        30.10S
CHARLES CITY * SUNNY     59  45  58 CALM      30.11F
CLINTON *      MOSUNNY   57  42  57 NE13      30.09S
DECORAH *      SUNNY     55  43  62 S7        30.10S
DUBUQUE        MOSUNNY   57  42  57 VRB7      30.09S
MONTICELLO *   MOSUNNY   57  41  54 NE6G13    30.09F
OELWEIN *      SUNNY     57  45  62 E5G12     30.11S
WATERLOO       SUNNY     59  44  57 VRB6      30.10F
$$

IAZ064-065-067-068-078-021800-
   EAST CENTRAL IOWA

CITY           SKY/WX    TMP DP  RH WIND       PRES   REMARKS
DAVENPORT      CLOUDY    56  41  57 NE13      30.09S
IOWA CITY      CLOUDY    55  43  63 SE5       30.12S
MT. PLEASANT * CLOUDY    54  48  82 N6        30.11R
MUSCATINE *    CLOUDY    55  45  67 NE6       30.11S
QUAD CITIES    CLOUDY    56  42  59 VRB6      30.08S
$$

IAZ062-063-075>077-085>089-095>099-021800-
   SOUTHEAST IOWA

CITY           SKY/WX    TMP DP  RH WIND       PRES   REMARKS
BURLINGTON     CLOUDY    51  46  83 NE9       30.09S
FAIRFIELD *    CLOUDY    54  45  71 NE8G15    30.10S
FORT MADISON * CLOUDY    52  46  82 NE9       30.10S
KEOKUK *       CLOUDY    52  48  87 N8        30.08S
OSKALOOSA *    PTSUNNY   55  45  67 NE10      30.10F
OTTUMWA        CLOUDY    54  44  69 N9        30.10S
WASHINGTON *   CLOUDY    54  48  82 NE5       30.12S
$$

ABBREVIATIONS USED IN REMARKS
   TC - TEMPERATURES IN CELSIUS
  WCI - WIND CHILL INDEX
   HX - HEAT INDEX
  VSB - VISIBILITY
$$




USA.gov is the U.S. government's official web portal to all federal, state and local government web resources and services.